HAZ7508 RPLL-ZSPD

Flight info

Callsign HAZ7508
Flight time N/A
Altitude 36000
Route CAB2V CAB A461 NOMAN DCT SANKU DCT SOUSA V601 DOTMI/K0867S1095 A470 LJG B221 SHZ W58 BK BK91A
Aircraft B738/M-SDE2E3FGHIRWXY/LB1

Departure

Time N/A
Airport Ninoy Aquino International Airport (RPLL)

Arrival

Time 2026-05-07 15:20
Airport Shanghai Pudong International Airport (ZSPD)
Time Latitude Longitude Altitude Speed Heading
2026-05-07 14:17 27.49989 120.45139 33089 ft 455 kts 33°
2026-05-07 14:17 27.52659 120.47041 33091 ft 456 kts 33°
2026-05-07 14:18 27.58046 120.50882 33093 ft 456 kts 33°
2026-05-07 14:18 27.63444 120.54735 33093 ft 456 kts 33°
2026-05-07 14:19 27.68796 120.58559 33093 ft 456 kts 33°
2026-05-07 14:19 27.74401 120.61994 33103 ft 457 kts 21°
2026-05-07 14:20 27.80608 120.63509 33122 ft 458 kts
2026-05-07 14:20 27.86968 120.64071 33130 ft 458 kts
2026-05-07 14:21 27.93354 120.64738 33139 ft 458 kts
2026-05-07 14:21 27.99727 120.65369 33146 ft 458 kts
2026-05-07 14:22 28.06092 120.65996 33147 ft 458 kts
2026-05-07 14:22 28.12427 120.66616 33147 ft 458 kts
2026-05-07 14:23 28.18805 120.67239 33147 ft 458 kts
2026-05-07 14:23 28.25150 120.67859 33147 ft 458 kts
2026-05-07 14:24 28.31495 120.68478 33147 ft 458 kts
2026-05-07 14:24 28.37816 120.69096 33147 ft 458 kts
2026-05-07 14:25 28.44208 120.69720 33147 ft 458 kts
2026-05-07 14:25 28.50538 120.70339 33147 ft 458 kts
2026-05-07 14:26 28.56878 120.70960 33147 ft 458 kts
2026-05-07 14:26 28.63201 120.71581 33147 ft 458 kts
2026-05-07 14:27 28.69567 120.72206 33147 ft 458 kts
2026-05-07 14:27 28.75878 120.72887 33147 ft 458 kts
2026-05-07 14:28 28.82258 120.73596 33147 ft 458 kts
2026-05-07 14:28 28.88602 120.74287 33147 ft 458 kts
2026-05-07 14:29 28.94974 120.74936 33147 ft 458 kts
2026-05-07 14:29 29.01311 120.75588 33147 ft 463 kts
2026-05-07 14:30 29.07818 120.76258 33148 ft 472 kts
2026-05-07 14:30 29.14262 120.76923 33144 ft 467 kts
2026-05-07 14:31 29.20664 120.77585 33148 ft 464 kts
2026-05-07 14:31 29.27106 120.78250 33147 ft 466 kts
2026-05-07 14:32 29.33548 120.78917 33147 ft 467 kts
2026-05-07 14:32 29.39980 120.79584 33147 ft 466 kts
2026-05-07 14:33 29.46451 120.80256 33150 ft 466 kts
2026-05-07 14:33 29.52878 120.81084 33162 ft 468 kts
2026-05-07 14:34 29.58952 120.83732 33173 ft 472 kts 31°
2026-05-07 14:34 29.61591 120.85994 33055 ft 471 kts 40°
2026-05-07 14:34 29.63875 120.88635 32790 ft 461 kts 50°
2026-05-07 14:34 29.65735 120.91579 32547 ft 455 kts 57°
2026-05-07 14:35 29.67387 120.94564 32308 ft 456 kts 57°
2026-05-07 14:35 29.69055 120.97517 32069 ft 457 kts 56°
2026-05-07 14:35 29.70867 121.00645 31815 ft 459 kts 56°
2026-05-07 14:35 29.72648 121.03725 31563 ft 459 kts 56°
2026-05-07 14:36 29.74361 121.06709 30972 ft 457 kts 56°
2026-05-07 14:36 29.76088 121.09726 30210 ft 455 kts 57°
2026-05-07 14:36 29.77830 121.12769 29524 ft 451 kts 57°
2026-05-07 14:36 29.79532 121.15745 28955 ft 444 kts 57°
2026-05-07 14:37 29.81198 121.18662 28372 ft 439 kts 57°
2026-05-07 14:37 29.84503 121.24455 27215 ft 429 kts 57°
2026-05-07 14:37 29.86153 121.27353 26631 ft 432 kts 57°
2026-05-07 14:38 29.87844 121.30167 26041 ft 427 kts 52°
2026-05-07 14:38 29.89821 121.32727 25453 ft 421 kts 43°
2026-05-07 14:38 29.92083 121.34844 24853 ft 416 kts 33°
2026-05-07 14:38 29.94595 121.36517 24258 ft 411 kts 27°
2026-05-07 14:39 29.97123 121.38058 23661 ft 407 kts 28°
2026-05-07 14:39 29.99613 121.39628 23067 ft 403 kts 28°
2026-05-07 14:39 30.02061 121.41187 22482 ft 400 kts 28°
2026-05-07 14:39 30.04530 121.42746 21892 ft 402 kts 28°
2026-05-07 14:40 30.06983 121.44289 21294 ft 398 kts 28°
2026-05-07 14:40 30.09410 121.45815 20706 ft 393 kts 28°
2026-05-07 14:40 30.11814 121.47327 20120 ft 389 kts 28°
2026-05-07 14:40 30.14191 121.48822 19537 ft 384 kts 28°
2026-05-07 14:41 30.16541 121.50300 18959 ft 380 kts 28°
2026-05-07 14:41 30.18844 121.51748 18390 ft 376 kts 28°
2026-05-07 14:41 30.21175 121.53215 17812 ft 373 kts 28°
2026-05-07 14:41 30.23438 121.54639 17248 ft 369 kts 28°
2026-05-07 14:42 30.25696 121.56062 16683 ft 367 kts 28°
2026-05-07 14:42 30.27968 121.57523 16112 ft 370 kts 29°
2026-05-07 14:42 30.30207 121.58980 15537 ft 366 kts 29°
2026-05-07 14:42 30.32435 121.60424 14970 ft 362 kts 29°
2026-05-07 14:43 30.34642 121.61853 14402 ft 358 kts 29°
2026-05-07 14:43 30.36826 121.63271 13834 ft 354 kts 30°
2026-05-07 14:43 30.38955 121.64735 13271 ft 351 kts 32°
2026-05-07 14:43 30.41050 121.66230 12712 ft 347 kts 32°
2026-05-07 14:44 30.43104 121.67680 12168 ft 344 kts 32°
2026-05-07 14:44 30.45143 121.69112 11626 ft 341 kts 32°
2026-05-07 14:44 30.47178 121.70544 11211 ft 334 kts 32°
2026-05-07 14:44 30.49173 121.71948 10757 ft 336 kts 32°
2026-05-07 14:45 30.51176 121.73357 10460 ft 325 kts 33°
2026-05-07 14:45 30.53088 121.74703 10332 ft 309 kts 33°
2026-05-07 14:45 30.54890 121.75978 10201 ft 296 kts 31°
2026-05-07 14:45 30.56746 121.76932 9922 ft 288 kts
2026-05-07 14:46 30.58703 121.76817 9870 ft 278 kts 341°
2026-05-07 14:46 30.60563 121.76098 9835 ft 283 kts 340°
2026-05-07 14:46 30.62468 121.75416 9840 ft 283 kts 341°
2026-05-07 14:46 30.64356 121.74734 9842 ft 283 kts 340°
2026-05-07 14:47 30.66196 121.74049 9842 ft 283 kts 340°
2026-05-07 14:47 30.68070 121.73347 9842 ft 283 kts 340°
2026-05-07 14:47 30.69883 121.72667 9870 ft 288 kts 343°
2026-05-07 14:47 30.71562 121.72044 9867 ft 289 kts 342°
2026-05-07 14:48 30.73588 121.71275 9869 ft 288 kts 342°
2026-05-07 14:48 30.75473 121.70562 9870 ft 288 kts 342°
2026-05-07 14:48 30.77383 121.69840 9870 ft 288 kts 342°
2026-05-07 14:48 30.79312 121.69114 9860 ft 284 kts 342°
2026-05-07 14:49 30.81195 121.68407 9624 ft 282 kts 342°
2026-05-07 14:49 30.83104 121.67689 9270 ft 285 kts 343°
2026-05-07 14:49 30.84990 121.66979 8895 ft 283 kts 343°
2026-05-07 14:49 30.86864 121.66267 8520 ft 282 kts 343°
2026-05-07 14:50 30.88732 121.65570 8145 ft 280 kts 347°
2026-05-07 14:50 30.90637 121.65462 7818 ft 270 kts 17°
2026-05-07 14:50 30.92261 121.66395 7671 ft 253 kts 41°
2026-05-07 14:50 30.93425 121.67893 7346 ft 246 kts 64°
2026-05-07 14:51 30.94020 121.69763 7093 ft 239 kts 76°
2026-05-07 14:51 30.94233 121.71646 6807 ft 234 kts 96°
2026-05-07 14:51 30.93743 121.73488 6546 ft 240 kts 121°
2026-05-07 14:51 30.92597 121.74908 6253 ft 239 kts 144°
2026-05-07 14:52 30.91068 121.75687 5977 ft 238 kts 160°
2026-05-07 14:52 30.89466 121.76275 5690 ft 244 kts 159°
2026-05-07 14:52 30.87836 121.76895 5392 ft 241 kts 159°
2026-05-07 14:52 30.86231 121.77502 5106 ft 238 kts 159°
2026-05-07 14:53 30.84658 121.78097 4833 ft 242 kts 158°
2026-05-07 14:53 30.83035 121.78711 4537 ft 242 kts 158°
2026-05-07 14:53 30.81414 121.79321 4248 ft 239 kts 158°
2026-05-07 14:53 30.79828 121.79918 3960 ft 240 kts 158°
2026-05-07 14:54 30.78217 121.80521 3670 ft 243 kts 158°
2026-05-07 14:54 30.76598 121.81126 3376 ft 240 kts 158°
2026-05-07 14:54 30.75031 121.81872 3089 ft 240 kts 141°
2026-05-07 14:54 30.74037 121.83315 3033 ft 222 kts 107°
2026-05-07 14:55 30.73754 121.85072 3015 ft 217 kts 85°
2026-05-07 14:55 30.74089 121.86764 3030 ft 214 kts 70°
2026-05-07 14:55 30.74571 121.88422 3022 ft 213 kts 70°
2026-05-07 14:55 30.75023 121.90032 3014 ft 195 kts 70°
2026-05-07 14:56 30.75541 121.91414 3007 ft 177 kts 52°
2026-05-07 14:56 30.76521 121.92292 3020 ft 180 kts 24°
2026-05-07 14:56 30.77753 121.92497 3019 ft 185 kts 356°
2026-05-07 14:56 30.79012 121.92072 3028 ft 188 kts 346°
2026-05-07 14:57 30.80220 121.91614 3014 ft 178 kts 347°
2026-05-07 14:57 30.81405 121.91172 3019 ft 178 kts 347°
2026-05-07 14:57 30.82598 121.90726 3020 ft 178 kts 347°
2026-05-07 14:57 30.83777 121.90284 3020 ft 178 kts 347°
2026-05-07 14:58 30.84952 121.89841 3020 ft 178 kts 347°
2026-05-07 14:58 30.86146 121.89391 3020 ft 178 kts 347°
2026-05-07 14:58 30.87334 121.88944 3020 ft 178 kts 347°
2026-05-07 14:58 30.88526 121.88493 3020 ft 178 kts 347°
2026-05-07 14:59 30.89690 121.88054 3020 ft 177 kts 347°
2026-05-07 14:59 30.90879 121.87611 3020 ft 177 kts 348°
2026-05-07 14:59 30.92063 121.87179 3020 ft 177 kts 347°
2026-05-07 14:59 30.93228 121.86740 3022 ft 176 kts 347°
2026-05-07 15:00 30.94344 121.86315 3015 ft 161 kts 347°
2026-05-07 15:00 30.95386 121.85920 3024 ft 154 kts 347°
2026-05-07 15:00 30.96372 121.85545 3018 ft 147 kts 348°
2026-05-07 15:00 30.97355 121.85170 3016 ft 148 kts 347°
2026-05-07 15:01 30.98328 121.84801 2984 ft 149 kts 347°
2026-05-07 15:01 30.99320 121.84425 2769 ft 147 kts 347°
2026-05-07 15:01 31.00276 121.84066 2589 ft 145 kts 347°
2026-05-07 15:01 31.01246 121.83701 2390 ft 144 kts 347°
2026-05-07 15:02 31.02193 121.83344 2193 ft 143 kts 347°
2026-05-07 15:02 31.03123 121.82994 2000 ft 142 kts 347°
2026-05-07 15:02 31.04036 121.82659 1805 ft 144 kts 339°
2026-05-07 15:02 31.05029 121.82312 1754 ft 149 kts 342°
2026-05-07 15:03 31.05963 121.81979 2068 ft 137 kts 341°
2026-05-07 15:03 31.06911 121.81641 2551 ft 148 kts 340°
2026-05-07 15:03 31.07896 121.81303 2904 ft 157 kts 342°
2026-05-07 15:03 31.08941 121.80946 2882 ft 156 kts 339°
2026-05-07 15:04 31.09961 121.80535 2998 ft 154 kts 338°
2026-05-07 15:04 31.10972 121.80069 2943 ft 162 kts 338°
2026-05-07 15:04 31.12075 121.79628 2930 ft 182 kts 340°
2026-05-07 15:04 31.13345 121.79140 2904 ft 206 kts 340°
2026-05-07 15:05 31.14788 121.78589 2925 ft 222 kts 340°
2026-05-07 15:05 31.16264 121.78000 2933 ft 224 kts 334°
2026-05-07 15:05 31.17433 121.76831 2934 ft 221 kts 297°
2026-05-07 15:05 31.17682 121.75082 2936 ft 221 kts 260°
2026-05-07 15:06 31.17158 121.73382 2929 ft 223 kts 245°
2026-05-07 15:06 31.16246 121.71907 2920 ft 224 kts 220°
2026-05-07 15:06 31.14862 121.71082 2943 ft 227 kts 204°
2026-05-07 15:06 31.13548 121.70094 2917 ft 223 kts 233°
2026-05-07 15:07 31.12897 121.68452 2945 ft 222 kts 253°
2026-05-07 15:07 31.12212 121.66842 2917 ft 223 kts 228°
2026-05-07 15:07 31.10865 121.65989 2929 ft 228 kts 188°
2026-05-07 15:07 31.09314 121.66356 2928 ft 233 kts 148°
2026-05-07 15:08 31.08196 121.67728 2946 ft 235 kts 127°
2026-05-07 15:08 31.07078 121.69128 2917 ft 233 kts 149°
2026-05-07 15:08 31.05610 121.69923 2931 ft 232 kts 162°
2026-05-07 15:08 31.04086 121.70551 2928 ft 231 kts 162°
2026-05-07 15:09 31.02569 121.71155 2927 ft 232 kts 163°
2026-05-07 15:09 31.01034 121.71751 2927 ft 232 kts 163°
2026-05-07 15:09 30.99504 121.72342 2922 ft 226 kts 163°
2026-05-07 15:09 30.98053 121.72900 2929 ft 215 kts 163°
2026-05-07 15:10 30.96620 121.73448 2929 ft 215 kts 163°
2026-05-07 15:10 30.95188 121.73997 2928 ft 216 kts 163°
2026-05-07 15:10 30.93749 121.74548 2928 ft 216 kts 163°
2026-05-07 15:10 30.92334 121.75089 2928 ft 216 kts 163°
2026-05-07 15:11 30.90877 121.75646 2928 ft 216 kts 163°
2026-05-07 15:11 30.89449 121.76192 2928 ft 216 kts 163°
2026-05-07 15:11 30.88025 121.76741 2928 ft 217 kts 161°
2026-05-07 15:11 30.86808 121.77698 2923 ft 203 kts 125°
2026-05-07 15:12 30.86450 121.79198 2942 ft 189 kts 87°
2026-05-07 15:12 30.86649 121.80745 2921 ft 190 kts 72°
2026-05-07 15:12 30.87261 121.82068 2940 ft 186 kts 49°
2026-05-07 15:12 30.88058 121.83263 2921 ft 186 kts 51°
2026-05-07 15:13 30.88838 121.84472 2925 ft 187 kts 51°
2026-05-07 15:13 30.89627 121.85695 2928 ft 186 kts 51°
2026-05-07 15:13 30.90479 121.86826 2931 ft 182 kts 32°
2026-05-07 15:13 30.91606 121.87204 2920 ft 161 kts 353°
2026-05-07 15:14 30.92690 121.86929 2926 ft 158 kts 340°
2026-05-07 15:14 30.93717 121.86544 2932 ft 156 kts 339°
2026-05-07 15:14 30.94748 121.86151 2953 ft 152 kts 339°
2026-05-07 15:14 30.95752 121.85769 2907 ft 149 kts 340°
2026-05-07 15:15 30.96732 121.85399 2925 ft 149 kts 340°
2026-05-07 15:15 30.97726 121.85025 2938 ft 149 kts 340°
2026-05-07 15:15 30.98703 121.84657 2864 ft 150 kts 340°
2026-05-07 15:15 30.99694 121.84285 2686 ft 149 kts 340°
2026-05-07 15:16 31.00676 121.83916 2499 ft 148 kts 340°
2026-05-07 15:16 31.01648 121.83549 2304 ft 147 kts 340°
2026-05-07 15:16 31.02617 121.83184 2104 ft 147 kts 340°
2026-05-07 15:16 31.03587 121.82819 1904 ft 146 kts 340°
2026-05-07 15:17 31.04551 121.82456 1704 ft 145 kts 340°
2026-05-07 15:17 31.05497 121.82100 1509 ft 145 kts 340°
2026-05-07 15:17 31.06452 121.81740 1312 ft 144 kts 340°
2026-05-07 15:17 31.07373 121.81383 1118 ft 136 kts 346°
2026-05-07 15:18 31.08275 121.81050 940 ft 135 kts 347°
2026-05-07 15:18 31.09169 121.80715 757 ft 135 kts 346°
2026-05-07 15:18 31.10051 121.80383 578 ft 134 kts 346°
2026-05-07 15:18 31.10938 121.80048 397 ft 133 kts 346°
2026-05-07 15:19 31.11811 121.79700 219 ft 131 kts 345°
2026-05-07 15:19 31.12675 121.79378 86 ft 133 kts 346°
2026-05-07 15:19 31.13512 121.79070 27 ft 114 kts 346°
2026-05-07 15:19 31.14112 121.78854 27 ft 65 kts 342°
2026-05-07 15:20 31.14410 121.78747 24 ft 28 kts 353°
2026-05-07 15:20 31.14580 121.78752 24 ft 23 kts
2026-05-07 15:20 31.14733 121.78781 25 ft 20 kts
2026-05-07 15:20 31.14866 121.78778 25 ft 18 kts 345°
2026-05-07 15:21 31.14985 121.78732 25 ft 15 kts 342°
2026-05-07 15:21 31.15072 121.78706 24 ft 10 kts
2026-05-07 15:21 31.15118 121.78785 25 ft 13 kts 71°
2026-05-07 15:21 31.15148 121.78893 26 ft 14 kts 72°
2026-05-07 15:22 31.15177 121.79004 28 ft 14 kts 70°
2026-05-07 15:22 31.15209 121.79113 30 ft 14 kts 71°
2026-05-07 15:22 31.15239 121.79225 26 ft 11 kts 88°
2026-05-07 15:22 31.15170 121.79296 26 ft 15 kts 162°
2026-05-07 15:23 31.15065 121.79336 26 ft 16 kts 161°
2026-05-07 15:23 31.14950 121.79375 25 ft 18 kts 163°
2026-05-07 15:23 31.14824 121.79420 25 ft 16 kts 162°
2026-05-07 15:23 31.14732 121.79455 27 ft 13 kts 161°
2026-05-07 15:24 31.14639 121.79491 28 ft 14 kts 161°
2026-05-07 15:24 31.14539 121.79530 29 ft 15 kts 163°
2026-05-07 15:24 31.14437 121.79567 28 ft 10 kts 162°
2026-05-07 15:24 31.14397 121.79630 30 ft 9 kts 86°
2026-05-07 15:25 31.14411 121.79693 33 ft 6 kts 72°
2026-05-07 15:25 31.14426 121.79748 35 ft 8 kts 71°
2026-05-07 15:25 31.14479 121.79785 37 ft 8 kts
2026-05-07 15:25 31.14526 121.79825 39 ft 6 kts 64°
2026-05-07 15:26 31.14538 121.79862 38 ft 3 kts 71°
2026-05-07 15:26 31.14542 121.79874 38 ft 0 kts 70°
2026-05-07 15:26 31.14543 121.79878 38 ft 0 kts 70°
2026-05-07 15:26 31.14544 121.79881 38 ft 0 kts 70°
2026-05-07 15:27 31.14545 121.79884 38 ft 0 kts 70°
2026-05-07 15:27 31.14546 121.79888 38 ft 0 kts 70°